Regional Weather Roundup
Issued by NWS Upton, NY

Current Version | Previous Version | Text Only | Print | Product List | Glossary On
Versions: 1 2 3 4 5 6 7 8 9 10 11 12 13 14 15 16 17 18 19 20 21 22 23 24 25 26 27 28 29 30 31 32 33 34 35 36 37 38 39 40 41 42 43 44 45 46 47 48 49 50
000
ASUS41 KOKX 280105
RWROKX

REGIONAL WEATHER ROUNDUP
NATIONAL WEATHER SERVICE NEW YORK NY
900 PM EDT SUN JUL 27 2014

NOTE: "FAIR" INDICATES FEW OR NO CLOUDS BELOW 12,000 FEET WITH NO
SIGNIFICANT WEATHER AND/OR OBSTRUCTIONS TO VISIBILITY.

NYZ071-072-176-178-NJZ106-104-280200-
NEW YORK CITY METRO AREA


CITY           SKY/WX    TMP DP  RH WIND       PRES   REMARKS
CENTRAL PARK   MOCLDY    83  62  49 CALM      29.70S
LAGUARDIA APRT MOCLDY    82  68  62 S8        29.66F
KENNEDY INTL   MOCLDY    79  71  76 S16       29.68S
NEWARK/LIBERTY CLOUDY    84  66  54 S7        29.66S
BRNX BOT. GARD   N/A     81  66  61 SE5       29.68F
TETERBORO      MOCLDY    84  64  50 SW3       29.65F
$$

NYZ177-179-078>081-280200-
LONG ISLAND NEW YORK

CITY           SKY/WX    TMP DP  RH WIND       PRES   REMARKS
FARMINGDALE    PTCLDY    76  71  85 SW8       29.69S
ISLIP          MOCLDY    76  70  82 SW5       29.68F
SHIRLEY        PTCLDY    75  70  84 S5        29.70F
WESTHAMPTON    CLEAR     73  69  87 S5        29.72S
MONTAUK POINT    N/A     73  69  87 SW5       29.74R
$$

NYZ052-065-067-280200-
HUDSON VALLEY

CITY           SKY/WX    TMP DP  RH WIND       PRES   REMARKS
WHITE PLAINS   LGT RAIN  75  68  78 SE3       29.68S
NEWBURGH       PTCLDY    79  68  69 SW7       29.68F
MONTGOMERY     MOCLDY    74  67  78 CALM      29.67R
POUGHKEEPSIE   PTCLDY    77  68  73 CALM      29.65S
ALBANY         MOCLDY    73  67  81 S5        29.66S
$$

NJZ001-105-106-008-010-013-015-019>022-104-280200-
NEW JERSEY

CITY           SKY/WX    TMP DP  RH WIND       PRES   REMARKS
NEWARK/LIBERTY CLOUDY    84  66  54 S7        29.66S
TETERBORO      MOCLDY    84  64  50 SW3       29.65F
CALDWELL       MOCLDY    80  65  59 CALM      29.67S
MORRISTOWN     CLOUDY    73  68  83 CALM      29.67F
SOMERVILLE     CLOUDY    75  68  78 CALM      29.65F
LINDEN         FAIR      85  69  60 S7        29.68S
SUSSEX         CLOUDY    77  67  71 CALM      29.69R
ANDOVER          N/A     74  67  78 CALM      29.69S
TRENTON        CLOUDY    80  71  74 S8        29.67S
MILLVILLE      CLOUDY    79  71  76 VRB5      29.71S
ATLANTIC CITY  CLOUDY    78  71  79 SW8       29.71S
WRIGHTSTOWN    MOCLDY    78  72  80 SW8       29.67S
TOMS RIVER     MOCLDY    79  72  78 SW3       29.70S
BELMAR         MOCLDY    79  70  73 S6        29.69F
$$

PAZ047>061-062-071-280200-
EASTERN PENNSYLVANIA

CITY           SKY/WX    TMP DP  RH WIND       PRES   REMARKS
PHILADELPHIA   LGT RAIN  81  71  71 S10       29.68S
ALLENTOWN      LGT RAIN  81  68  64 SW7       29.67S
SCRANTON       CLOUDY    81  63  54 CALM      29.68R
$$

CTZ002-004>006-009-010-012-RIZ004-006-007-MAZ004-011-015-280200-
SOUTHERN NEW ENGLAND
 IN CT

CITY           SKY/WX    TMP DP  RH WIND       PRES   REMARKS
BRADLEY INTL   MOCLDY    67  64  90 S5        29.70R
HARTFORD       PTCLDY    72  60  66 S6        29.70S
DANBURY        PTCLDY    77  68  73 CALM      29.70S
WTRBRY/OXFORD  MOCLDY    73  68  83 S6        29.73R
BRIDGEPORT     PTCLDY    77  70  79 S6        29.68R
MERIDEN        PTCLDY    76  69  79 E3        29.71R
NEW HAVEN      PTCLDY    77  70  79 E3        29.69R
CHESTER        FAIR      73  70  88 CALM      29.74R
GROTON         CLEAR     70  69  97 N6        29.73R
WILLIMANTIC    PTCLDY    66  63  90 SW5       29.70F

 IN RI

CITY           SKY/WX    TMP DP  RH WIND       PRES   REMARKS
PROVIDENCE     MOCLDY    72  70  93 S8        29.70F
BLOCK ISLAND   CLEAR     72  66  83 SW9       29.75R
WESTERLY       PTCLDY    72  69  90 S5        29.73R

 IN MA

CITY           SKY/WX    TMP DP  RH WIND       PRES   REMARKS
BOSTON         CLOUDY    72  69  90 S8G18     29.70R
WORCESTER      MOCLDY    71  68  90 SW7       29.72R
WESTFIELD      RAIN      67  64  90 CALM      29.69R FOG
PROVINCETOWN   CLOUDY    72  68  88 S10       29.74R
NANTUCKET      CLOUDY    68  66  93 S10       29.76R
$$

ANZ330-335-338-340-345-350-353-355-280200-
COASTAL MARINE OBSERVATIONS


STATION/POSITION TIME  SKY/WX   TEMP    WIND        PRES    VSBY  WAVE
                                AIR SEA DIR/SP/G                  HT/PER
                 (UTC)          (F)     (DEG/KT/KT) (MB)    (MI)  (FT/S)
NY HARB ENTRANCE NOT AVBL
4S FIRE IS       NOT AVBL
23SW MTP         0100            72 71              1005.9          4/ 6
HUDSON CANYON    0100            74 74  200/ 12/ 14 1006.7          4/ 6
EXECUTION ROCKS  0100            78 72  180/  8/ 10   N/A
WESTERN LI SOUND 0100            78     170/  8/ 10   N/A           0
CENTRAL LI SOUND 0000            75 73  190/ 12/ 14   N/A           1/ 3
EASTERN LI SOUND 0000            71 68  260/  2/  4   N/A
ROBBINS REEF     0100            81     170/  8/  9   N/A
$$


>>>>>>>>>>>>>>>>>>>>>>>>>>>> KEY <<<<<<<<<<<<<<<<<<<<<<<<<<<
>                                                          <
>     SKY/WX - SKY CONDITION/PRESENT WEATHER               <
>     TMP    - TEMPERATURE IN FAHRENHEIT                   <
>     DP     - DEWPOINT IN FAHRENHEIT                      <
>     RH     - RELATIVE HUMIDITY IN PERCENT                <
>     WIND   - DIRECTION AND SPEED IN MPH                  <
>     PRES   - MEAN SEA LEVEL PRESSURE IN INCHES OF HG     <
>     WCI    - WIND CHILL INDEX                            <
>     VSB    - VISIBILITY IN MILES                         <
>     HX     - HEAT INDEX                                  <
>     TC     - TEMPERATURE IN CELSIUS                      <
>     VRB    - VARIABLE WIND DIRECTION                     <
>                                                          <
>>>>>>>>>>>>>>>>>>>>>>>>>>>> KEY <<<<<<<<<<<<<<<<<<<<<<<<<<<





USA.gov is the U.S. government's official web portal to all federal, state and local government web resources and services.